Flag for U.S.A. Weather past 2 weeks in Lakeland, Florida, U.S.A.

Now
54 °F

Overcast.


Feels Like: 51 °F
Forecast: 56 / 73 °F
Wind: 8 mph from Northeast

Location: Lakeland Regional

Current Time: Feb 28, 2015 at 12:28:48 AM

Latest Report: Feb 27, 2015 at 11:55 PM


Visibility: 10 mi

Pressure: 30.26 "Hg

Humidity: 88%

Dew point: 50 °F

Location of LakelandLocation

Historic Weather in Lakeland — Graph

°F

Lakeland temperature yesterday

Maximum temperature yesterday: 57 °F (at 12:50 PM)
Minimum temperature yesterday: 52 °F (at 7:50 AM)
Average temperature yesterday: 54 °F

Past Weeks' High & Low Weather Summary

 TemperatureHumidityPressure
High81 °F (Feb 22, 2:50 PM)100% (Feb 15, 2:15 AM)30.45 "Hg (Feb 15, 2:15 AM)
Low27 °F (Feb 20, 5:50 AM)23% (Feb 20, 2:50 PM)29.71 "Hg (Feb 26, 4:15 AM)
Average56 °F76%30.12 "Hg
* Reported Feb 12 11:15 PM — Feb 27 11:35 PM, Lakeland, Weather by CustomWeather, © 2015

Note: Actual official high and low records may vary slightly from our data, if they occured in-between our weather recording intervals... More about our weather records

Advertising

Lakeland weather history for previous 24 hours

 ConditionsComfort  
Time TempWeatherWind HumidityBarometerVisibility
11:35 PM
Fri, Feb 27
54 °FOvercast.13 mph88%30.26 "Hg10 mi
11:15 PM54 °FOvercast.13 mph88%30.26 "Hg10 mi
10:15 PM54 °FOvercast.13 mph88%30.27 "Hg10 mi
9:55 PM54 °FOvercast.8 mph88%30.25 "Hg10 mi
9:35 PM54 °FOvercast.12 mph88%30.24 "Hg10 mi
9:15 PM54 °FOvercast.16 mph88%30.25 "Hg10 mi
8:50 PM55 °FMostly cloudy.15 mph82%30.25 "Hg10 mi
7:50 PM55 °FMostly cloudy.15 mph77%30.23 "Hg10 mi
6:50 PM57 °FMostly cloudy.14 mph72%30.22 "Hg10 mi
5:50 PM57 °FOvercast.10 mph72%30.21 "Hg10 mi
4:50 PM57 °FOvercast.12 mph72%30.21 "Hg12 mi
3:50 PM57 °FOvercast.13 mph72%30.19 "Hg12 mi
2:50 PM57 °FOvercast.12 mph72%30.20 "Hg12 mi
1:50 PM57 °FOvercast.10 mph72%30.20 "Hg12 mi
12:50 PM57 °FOvercast.14 mph72%30.22 "Hg10 mi
11:50 AM55 °FOvercast.14 mph77%30.24 "Hg10 mi
10:50 AM54 °FOvercast.10 mph77%30.24 "Hg10 mi
9:50 AM54 °FOvercast.9 mph77%30.23 "Hg12 mi
8:50 AM54 °FOvercast.12 mph77%30.21 "Hg10 mi
7:50 AM52 °FOvercast.13 mph82%30.17 "Hg12 mi
6:50 AM54 °FOvercast.9 mph77%30.15 "Hg10 mi
5:50 AM54 °FOvercast.13 mph82%30.12 "Hg10 mi
4:35 AM54 °FOvercast.9 mph82%30.08 "Hg10 mi
4:15 AM54 °FOvercast.9 mph82%30.07 "Hg10 mi
3:55 AM54 °FOvercast.8 mph88%30.07 "Hg10 mi
3:15 AM54 °FOvercast.12 mph88%30.06 "Hg10 mi
2:55 AM54 °FOvercast.13 mph88%30.06 "Hg10 mi
2:15 AM54 °FOvercast.6 mph88%30.05 "Hg10 mi
1:55 AM54 °FOvercast.6 mph88%30.06 "Hg10 mi
1:35 AM54 °FOvercast.6 mph88%30.06 "Hg10 mi
1:15 AM54 °FOvercast.5 mph88%30.06 "Hg10 mi
12:55 AM54 °FOvercast.5 mph88%30.06 "Hg10 mi
12:15 AM54 °FOvercast.6 mph88%30.07 "Hg10 mi
Weather by CustomWeather, © 2015

See weather overviewHow to use our weather pages